sat.trackr.live / text

‹ back to catalog

STARLINK-5197

NORAD 54097 · 2022-136AY

PAYLOAD ACTIVE UNKNOWN

§ Identity

Operator
Country
US
Launch date
2022-10-20
Launch site
AFETR
Launch vehicle
Mass (kg)
RCS (m²)

Purposes: comms

External: N2YO · Heavens-Above · Gunter

§ Orbital elements

Epoch: 2026-09-20T22:49:13.782144Z

Period
95.44 min
Inclination
53.1602°
Eccentricity
0.0001751
Mean motion
15.08832357 rev/d
Perigee alt
538.6 km
Apogee alt
541.0 km
Semi-major
6,917.9 km
B*
3.4960e-5
RAAN
151.8268°
Arg perigee
92.7285°
Mean anomaly
267.3907°
Rev number
21,681

§ Raw data

STARLINK-51971 54097U 22136AY  26263.95085396  .00000268  00000+0  34960-4 0  99942 54097  53.1602 151.8268 0001751  92.7285 267.3907 15.08832357216816

JSON: /api/v1/satellites/54097 · /tle

For live sub-satellite position, see the globe view (requires WebGL).

§ Visibility from observer

Set your observer location to see the next 7 days of passes ≥ 10°. The values pass through the URL so the page stays shareable.

No JS? Fill the form by hand. The geolocation button needs JavaScript.